This demonstration page uses our WeatherBlox Daily Observations layout. Learn more.

Left ArrowRight Arrow

Hourly Observations for December 12, 2019

Temp ( °F °C ) Dew Point ( °F °C ) Humidity (%) Winds ( mph kmh ) Pressure ( in mb ) Visibility ( mi km ) Precip ( " mm )
12:34 am 00:34 Cloudy with Mist and Fog 51 10.6 50 10 96 96 SSW 6 9 30.17 1022 5 8 0.00 0.00
12:53 am 00:53 Cloudy with Mist and Fog 52 11.1 50 10 93 93 SSW 7 11 30.16 1021 3 5 0.00 0.00
1:03 am 01:03 Cloudy with Mist and Fog 52 11.1 50 10 93 93 SSW 7 11 30.17 1022 3 4 0.00 0.00
1:44 am 01:44 Cloudy with Mist and Fog 51 10.6 50 10 96 96 SSW 6 9 30.17 1022 2 3 0.00 0.00
1:53 am 01:53 Cloudy with Mist and Fog 51 10.6 50 10 96 96 SSW 6 9 30.16 1022 2 3 0.00 0.00
2:53 am 02:53 Cloudy with Mist and Fog 52 11.1 50 10 93 93 SW 3 6 30.18 1022 2 3 0.00 0.00
3:15 am 03:15 Cloudy with Mist and Fog 52 11.1 50 10 93 93 SSW 6 9 30.19 1022 2 3 0.00 0.00
3:39 am 03:39 Cloudy with Mist and Fog 52 11.1 50 10 93 93 W 6 9 30.20 1023 3 4 0.00 0.00
3:53 am 03:53 Cloudy with Mist and Fog 51 10.6 50 10 96 96 WSW 3 6 30.19 1022 3 4 0.00 0.00
4:02 am 04:02 Cloudy with Mist and Fog 51 10.6 50 10 96 96 Calm 30.20 1023 3 5 0.00 0.00
4:13 am 04:13 Cloudy with Mist and Fog 51 10.6 50 10 96 96 Calm 30.20 1023 2 3 0.00 0.00
4:27 am 04:27 Cloudy with Mist and Fog 51 10.6 50 10 96 96 WSW 3 6 30.20 1023 3 5 0.00 0.00
4:39 am 04:39 Cloudy with Mist and Fog 51 10.6 50 10 96 96 W 3 6 30.21 1023 6 10 0.00 0.00
4:53 am 04:53 Cloudy with Mist and Fog 51 10.6 50 10 96 96 Calm 30.19 1022 6 10 0.00 0.00
5:41 am 05:41 Cloudy 51 10.6 50 10 96 96 Calm 30.22 1023 8 13 0.00 0.00
5:53 am 05:53 Cloudy with Mist and Fog 51 10.6 50 10 96 96 WNW 6 9 30.21 1023 4 6 0.00 0.00
6:05 am 06:05 Cloudy with Mist and Fog 51 10.6 50 10 96 96 Calm 30.21 1023 3 5 0.00 0.00
6:38 am 06:38 Cloudy with Mist and Fog 51 10.6 50 10 96 96 S 3 6 30.22 1023 3 5 0.00 0.00
6:45 am 06:45 Cloudy with Mist and Fog 51 10.6 50 10 96 96 S 5 7 30.22 1023 3 4 0.00 0.00
6:53 am 06:53 Cloudy with Mist and Fog 51 10.6 50 10 96 96 SW 3 6 30.21 1023 3 4 0.00 0.00
7:53 am 07:53 Cloudy with Mist and Fog 51 10.6 50 10 96 96 Calm 30.23 1024 2 3 0.00 0.00
7:58 am 07:58 Cloudy with Mist and Fog 51 10.6 50 10 96 96 Calm 30.24 1024 1 2 0.00 0.00
8:15 am 08:15 Cloudy with Mist and Fog 51 10.6 50 10 96 96 Calm 30.25 1024 2 2 0.00 0.00
8:53 am 08:53 Cloudy with Mist and Fog 52 11.1 51 10.6 97 97 S 3 6 30.25 1024 2 3 0.00 0.00
9:00 am 09:00 Cloudy with Mist and Fog 52 11.1 50 10 93 93 S 3 6 30.26 1025 3 4 0.00 0.00
9:29 am 09:29 Cloudy with Mist and Fog 52 11.1 50 10 93 93 S 5 7 30.28 1025 2 3 0.00 0.00
9:42 am 09:42 Cloudy with Mist and Fog 52 11.1 51 10.6 97 97 S 6 9 30.27 1025 2 2 0.00 0.00
9:53 am 09:53 Cloudy with Mist and Fog 52 11.1 51 10.6 97 97 SSW 6 9 30.27 1025 2 3 0.00 0.00
10:20 am 10:20 Cloudy with Mist and Fog 52 11.1 51 10.6 97 97 SSW 7 11 30.29 1026 4 6 0.00 0.00
10:29 am 10:29 Cloudy with Mist and Fog 53 11.7 51 10.6 93 93 SSW 7 11 30.28 1026 6 10 0.00 0.00
10:53 am 10:53 Cloudy with Mist and Fog 53 11.7 51 10.6 93 93 SSW 9 15 30.28 1025 6 10 0.00 0.00
11:05 am 11:05 Cloudy with Mist and Fog 53 11.7 51 10.6 93 93 S 8 13 30.28 1026 2 3 0.00 0.00
11:53 am 11:53 Cloudy with Mist and Fog 53 11.7 51 10.6 93 93 SSW 8 13 30.27 1025 2 3 0.00 0.00
12:00 pm 12:00 Cloudy with Mist and Fog 53 11.7 51 10.6 93 93 SSW 7 11 30.27 1025 6 10 0.00 0.00
12:53 pm 12:53 Cloudy with Mist and Fog 54 12.2 51 10.6 90 90 SSW 7 11 30.24 1024 6 10 0.00 0.00
1:04 pm 13:04 Cloudy with Mist and Fog 54 12.2 51 10.6 90 90 SSW 8 13 30.25 1024 2 3 0.00 0.00
1:53 pm 13:53 Cloudy with Mist and Fog 54 12.2 51 10.6 90 90 SSW 8 13 30.22 1024 5 8 0.00 0.00
2:53 pm 14:53 Cloudy with Mist and Fog 55 12.8 52 11.1 90 90 SW 5 7 30.24 1024 6 10 0.00 0.00
3:53 pm 15:53 Cloudy with Mist and Fog 55 12.8 52 11.1 90 90 SW 7 11 30.24 1024 6 10 0.00 0.00
4:53 pm 16:53 Cloudy 55 12.8 52 11.1 90 90 WSW 3 6 30.25 1025 7 11 0.00 0.00
5:23 pm 17:23 Cloudy 55 12.8 51 10.6 87 87 Calm 30.26 1025 8 13 0.00 0.00
5:53 pm 17:53 Cloudy 55 12.8 51 10.6 87 87 Calm 30.26 1025 8 13 0.00 0.00
6:53 pm 18:53 Cloudy with Mist and Fog 54 12.2 52 11.1 93 93 Calm 30.25 1025 6 10 0.00 0.00
7:53 pm 19:53 Cloudy with Mist and Fog 54 12.2 52 11.1 93 93 Calm 30.27 1025 5 8 0.00 0.00
8:53 pm 20:53 Cloudy with Mist and Fog 54 12.2 52 11.1 93 93 Calm 30.25 1025 4 6 0.00 0.00
9:53 pm 21:53 Cloudy with Mist and Fog 54 12.2 52 11.1 93 93 Calm 30.26 1025 4 6 0.00 0.00
10:53 pm 22:53 Cloudy with Mist and Fog 53 11.7 52 11.1 96 96 Calm 30.26 1025 3 5 0.00 0.00
11:53 pm 23:53 Cloudy with Mist and Fog 54 12.2 52 11.1 93 93 Calm 30.26 1025 3 5 0.00 0.00

Powered by AerisWeather